Location: Borea
(45.6167°N, 23.0167°E)
Time: 10:34:02
(UTC+00:00)

CZ-4B R/B - Pass Details

Date: 03 February 2023
Orbit: 809 x 881 km, 99.0° (Epoch: 20 March)

Event Time Altitude Azimuth Distance (km) Brightness Sun altitude
Rises 16:07:47 0° 126° (SE) 3,341 5.9 -5.9°
Reaches altitude 10° 16:10:30 10° 113° (ESE) 2,422 5.1 -6.4°
Maximum altitude 16:14:43 24° 60° (ENE) 1,652 4.2 -7.1°
Drops below altitude 10° 16:19:00 10° 9° (N) 2,469 5.4 -7.8°
Sets 16:21:47 0° 356° (N) 3,421 6.2 -8.3°
